User: anonymous   Login
Location: Olsztyn
(53.7767°N, 20.4765°E)
Time: 15:20:43
(UTC+02:00)
Language:

Vanguard 1 - Orbit

View from above orbital plane
View from above orbital plane
View from above satellite
View from above satellite

Ground track
Ground track

The orbit data is extracted from the following two-line orbital elements,

1 00005U 58002B   24195.67865521  .00000905  00000-0  11258-2 0  9994
2 00005  34.2537 325.5103 1842640 206.9358 142.2589 10.85471624366800
Epoch (UTC): 13 July 2024 16:17:15
Eccentricity: 0.1842640
inclination: 34.2537°
perigee height: 650 km
apogee height: 3826 km
right ascension of ascending node: 325.5103°
argument of perigee: 206.9358°
revolutions per day: 10.85471624
mean anomaly at epoch: 142.2589°
orbit number at epoch: 36680

The dashed part of the orbit path shows where the satellite is in the earth's shadow,  

DLR